Ventura, CA (93003)

11:13 PM PST on February 10, 2016 (GMT -0800)
Elmhurst | | Change Station
CLOSE
Current Station
Personal Weather Station
Location: Ventura, CA
Elevation: 259 ft
Nearby Weather Stations

Elev 259 ft 34.27 °N, 119.22 °W | Updated 24 seconds ago

Clear
Clear
71.1 °F
Feels Like 74 °F
N
0.0
Wind Variable Wind from SE
Gusts 0.0 mph

Today
High -- | Low -- °F
--% Chance of Precip.
Yesterday
High -- | Low -- °F
Precip. -- in
Pressure 30.09 in
Visibility 10.0 miles
Clouds Clear
Heat Index 74 °F
Dew Point 26 °F
Humidity 18%
Rainfall 0.00 in
Snow Depth Not available.
6:47 AM 5:35 PM
Waxing Crescent, 10% visible
METAR KOXR 110651Z AUTO 02007KT 10SM CLR 18/02 A3009 RMK AO2 SLP189 T01830022
Pressure 30.09 in
Visibility 10.0 miles
Clouds Clear
Heat Index 74 °F
Dew Point 26 °F
Humidity 18%
Rainfall 0.00 in
Snow Depth Not available.
6:47 AM 5:35 PM
Waxing Crescent, 10% visible
METAR KOXR 110651Z AUTO 02007KT 10SM CLR 18/02 A3009 RMK AO2 SLP189 T01830022

10-Day Weather Forecast

Almanac

Astronomy

Feb. 10, 2016 Rise Set
Actual Time
Civil Twilight
Nautical Twilight
Astronomical Twilight
Moon
Length of Visible Light
Length of Day
Tomorrow will be .
, % of the Moon is Illuminated

Today's Extremes

State Highs State Lows

Community

WunderPhotos

Upload Photos

1,892,030 photos uploaded!

WunderBlog® & News

Nearby

Air Quality

  Air Quality AQ Index Pollutant
Not available.

Snow Depth

Station Depth Elevation

Earthquake Activity

City Distance Mag. Time & Date
Minimum magnitude displayed is 2.5.

Coastal Water Temperatures

Place Temperature

Stations

Nearby Weather Stations

Station Location Temp. Windchill Dew Point Humidity Wind Precip. Elev Updated Type
                   

Watches & Warnings

There are currently no watches in effect.